Regional Weather Roundup
Issued by NWS Wakefield, VA

Home | Current Version | Previous Version | Text Only | Print | Product List | Glossary Off
Versions: 1 2 3 4 5 6 7 8 9 10 11 12 13 14 15 16 17 18 19 20 21 22 23 24 25 26 27 28 29 30 31 32 33 34 35 36 37 38 39 40 41 42 43 44 45 46 47 48 49 50

000
ASUS41 KAKQ 040915
RWRAKQ

REGIONAL WEATHER ROUNDUP
NATIONAL WEATHER SERVICE WAKEFIELD VA
500 AM EDT SAT JUL 04 2015

Note: "fair" indicates few or no clouds below 12,000 feet with no
significant weather and/or obstructions to visibility. * = Denotes
station may not report precipitation (e.g., rain,snow,etc.),
thunder or fog.

VAZ042-051-052>054-056-041000-
NORTHERN VIRGINIA

CITY           SKY/WX    TMP DP  RH WIND       PRES   REMARKS
WASH NATIONAL  CLOUDY    73  68  84 N3        29.88F
DULLES         CLOUDY    70  66  87 CALM      29.89S
FORT BELVOIR   PTCLDY    68  66  94 CALM      29.87S
QUANTICO       CLOUDY    71  66  84 NW5       29.88S
FREDERICKSBRG* MOCLDY    71  71 100 CALM      29.86F
STAFFORD*      CLOUDY    67  65  94 CALM      29.92S FOG
WARRENTON      CLOUDY    69  69  99 CALM      29.88F FOG
CULPEPER*      CLOUDY    67  67 100 CALM      29.90S FOG
MANASSAS*      CLOUDY    70  70 100 CALM        N/A
LEESBURG*      DRIZZLE   70  70 100 SE3       29.90F
WINCHESTER     CLOUDY    68  66  94 CALM      29.89F
FRONT ROYAL*   PTSUNNY   64  64 100 CALM      29.88S
LURAY*         DRIZZLE   68  68 100 CALM      29.90S
$$

VAZ048-049-060>072-079>083-041000-
CENTRAL AND SOUTH CENTRAL VIRGINIA

CITY           SKY/WX    TMP DP  RH WIND       PRES   REMARKS
RICHMOND       CLOUDY    71  69  93 NW7       29.85S FOG
CHESTERFIELD*  NOT AVBL
PETERSBURG*    CLOUDY    72  72 100 W3        29.87S FOG
HANOVER        CLOUDY    68  68 100 NW3       29.88S FOG
TAPPAHANNOCK*  MOCLDY    72  68  88 CALM      29.85F
QUINTON*       CLOUDY    70  70  99 W3        29.85R
CHARLOTTSVILLE CLOUDY    69  66  90 CALM      29.89S FOG
GORDONSVILLE*  CLOUDY    68  66  94 CALM      29.89R
ORANGE*        CLOUDY    70  66  88 CALM      29.90S
LOUISA*        CLOUDY    70  66  88 CALM      29.88S FOG
BUMPASS*       CLOUDY    68  66  96 CALM      29.88R
FARMVILLE*     CLOUDY    71  71 100 CALM      29.88S FOG
CREWE*         CLOUDY    69  68  96 CALM      29.89S
FORT PICKETT*  CLOUDY    69  68  98 W6        29.89S
CHASE CITY*    CLOUDY    71  71 100 CALM      29.90S
CLARKSVILLE*   CLOUDY    70  70 100 CALM      29.90S
SOUTH HILL*    CLOUDY    69  68  99 W6        29.95S
LAWRENCEVILLE* NOT AVBL
EMPORIA*         N/A     70  68  94 SW5       29.90R
$$

VAZ088>098-041000-
SOUTHEAST VIRGINIA

CITY           SKY/WX    TMP DP  RH WIND       PRES   REMARKS
NORFOLK        PTCLDY    74  71  91 SW13      29.82F
VIRGINIA BEACH MOCLDY    77  72  84 SW12      29.82S
NORFOLK NAVAL  MOCLDY    73  72  96 SW10      29.83F
WEST POINT*    CLOUDY    74  72  91 N3        29.85R
SALUDA*        CLOUDY    74  72  95 NE6       29.82S
NEWPORT NEWS   CLOUDY    74  72  93 W10       29.83S
LANGLEY AFB    CLOUDY    73  72  94 SW16      29.81R
FORT EUSTIS    CLOUDY    73 N/A N/A W6        29.82R
WILLIAMSBURG*  PTCLDY    75  75 100 CALM      29.84S
HR EXEC AP*    FAIR      73  70  88 SW7       29.85F
FRANKLIN*      CLOUDY    72  70  95 W13       29.86R
WAKEFIELD      CLOUDY    72  70  93 W7        29.85R
$$

VAZ020-022-025-037-045-041000-
WEST CENTRAL AND SOUTHWEST VIRGINIA

CITY           SKY/WX    TMP DP  RH WIND       PRES   REMARKS
STAUNTON*      CLOUDY    67  66  94 CALM      29.93S FOG
WAYNESBORO*    CLOUDY    65  65 100 CALM      29.92S
HOT SPRINGS VA FOG       63  63 100 SW5       29.99S VSB 1/2
LYNCHBURG      CLOUDY    67  67 100 CALM      29.93R FOG
DANVILLE       CLOUDY    71  69  93 SW3       29.91S FOG
SOUTH BOSTON*  CLOUDY    69  68  95 MISG      29.91R
MARTINSVILLE   CLOUDY    70  70 100 CALM      29.95S FOG
ROANOKE        CLOUDY    68  67  96 CALM      29.94S FOG
BLACKSBURG     CLOUDY    66  66 100 CALM      30.00R FOG
DUBLIN*        CLOUDY    66  66 100 CALM      29.98R FOG
MARION*        DRIZZLE   65  64  95 W7        30.02R
HILLSVILLE*    CLOUDY    64  64 100 SW6       29.99R
RICHLANDS*     CLOUDY    64  64 100 W10G16    30.00R
WISE*          CLOUDY    64  64 100 SW8       30.01S
ABINGDON*      CLOUDY    68  67  99 W8        29.99S
$$

MDZ021>025-VAZ099-100-041000-
SOUTHERN MARYLAND AND THE DELMARVA PENINSULA

CITY           SKY/WX    TMP DP  RH WIND       PRES   REMARKS
PATUXENT RIVER CLOUDY    72  69  90 E8        29.85F
BAY BRIDGE APT   N/A     70  66  88 CALM      29.88F
LEONARDTOWN    CLOUDY    70  66  88 CALM      29.88S
DOVER          CLOUDY    72  67  82 E9        29.87F
GEORGETOWN     CLOUDY    70  67  90 NE5       29.88F
EASTON         MOCLDY    70  70 100 NE5       29.91F FOG
CAMBRIDGE      MOCLDY    70  68  94 CALM      29.86S
SALISBURY      CLOUDY    70  68  93 NE6       29.85F
OCEAN CITY     CLOUDY    74  69  85 E10       29.85F
WALLOPS ISLAND LGT RAIN  74  72  93 E13       29.83F
ACCOMACK*      RAIN      73  73 100 E5        29.82F
$$

NCZ012>017-030>032-041000-
NORTH CENTRAL AND EASTERN NORTH CAROLINA

CITY           SKY/WX    TMP DP  RH WIND       PRES   REMARKS
ROANOKE RAPIDS CLOUDY    72  70  94 SW7       29.89R
RALEIGH        PTCLDY    69  68  96 SW3       29.92R
ELIZABETH CITY PTCLDY    74  71  91 SW14      29.86S
AHOSKIE*       MOCLDY   N/A N/A N/A CALM      29.88R
EDENTON*       MOCLDY    74  70  86 W7        29.87F
CURRITUCK*     CLOUDY    75  72  91 SW6       29.85S
KILL DEVIL HLS MOCLDY    75  72  91 SW12G18   29.85F
MANTEO         CLOUDY    75  72  90 W14       29.87F
CAPE HATTERAS  PTCLDY    76  70  82 W15G21    29.91F
TARBORO*         N/A     73  69  87 SW8       29.91R
GOLDSBORO      CLEAR     73  71  92 SW5       29.90S FOG
WASHINGTON     CLOUDY    74  71  89 SW10      29.91R
GREENVILLE     PTCLDY    73  72  94 SW5       29.93S
NEW BERN       CLEAR     74  69  85 SW10      29.95R
WILMINGTON     CLEAR     78  72  81 SW10      29.95S
$$

VAZ048-041000-
ELSEWHERE

CITY           SKY/WX    TMP DP  RH WIND       PRES   REMARKS
HARRISBURG PA  LGT RAIN  67  63  87 SE5       29.91F
BALTIMORE      CLOUDY    70  67  90 E6        29.88F
ANNAPOLIS      CLOUDY    72  67  84 E5        29.87F
ANDREWS AFB    MOCLDY    69  69  99 NE6       29.87F
PHILADELPHIA   CLOUDY    70  66  87 NE3       29.92F
HENDERSON NC   CLOUDY    71  68  92 SW5       29.91S FOG
GREENSBORO     PTCLDY    68  68 100 SW6       29.92S
ROCKY MOUNT    CLEAR     71  69  93 SW5       29.90S
$$

VAZ100-041000-
MARINE

STATION/POSITION TIME  TEMP    WIND        PRES    WAVE   SWELL
                       AIR SEA DIR/SP/G            HT/PER HT/PER
                 (UTC) (F)     (DEG/KT/KT) (MB)    (FT/S) (FT/S)
BRANDYWINE LGT   0800   73 73  120/ 13/ 15 1012.5F
CAPE MAY NJ      0800   72 76   80/  6/  8 1012.2F
LEWES DE         0800   73 73  110/  9/ 12 1011.9F
15NM E FENWICK I 0850   74 73              1010.9F   3/ 6
OCEAN-CITY-INLET 0800   73 73  100/  7/ 11 1011.2F
WACHAPREAGUE VA  0800   74 79   50/ 11/ 17 1009.8F
THOMAS POINT MD  0800          110/  9       N/A
GOOSES REEF MD   0900   73 77   90/  8/ 10 1012.2F
COVE POINT MD    0800   71     100/ 10/ 11 1012.0F
SOLOMONS ISLAND  0800      79                N/A
BISHOPS HEAD MD  0800   73      80/ 10/ 13 1010.8F
PINEY POINT MD   0800          100/  8/ 12   N/A
CAMBRIDGE MD     0800   72 79   80/  9/ 12 1011.3F
LEWISETTA VA     0800   75 79   80/ 12/ 15 1010.4F
RAPPAHANNOCK LGT 0800           70/ 11/ 12 1010.1F
STINGRAY PT      0900   76 80   60/ 12/ 14 1009.6S   2/ 3
YORK RVR RNG VA  0800   75     270/ 10/ 13 1009.2R
YORKTOWN VA      0800   74 79  280/  4/  7 1009.6R
JAMESTOWN VA     0900   73 82  240/ 10/ 12   N/A
DOMINION TERM VA 0800   76     230/ 13/ 15 1009.6F
KIPTOPEKE VA     0800      80  200/  9/ 10   N/A
CHES BAY BRIDGE  0800   75 73  210/ 14/ 17 1009.3F
CAPE HENRY VA    0800   74     200/  7/ 10 1008.3F
CHESAPEAKE LGHT  0800   76     220/ 16/ 18 1010.4F
WILLOUBY STN VA  0800   75     220/ 14/ 16 1010.5F
CAPE HENRY BUOY  0828      78                N/A     3/ 9
1ST LANDING BUOY 0900      73              1009.5F   1/ 4
CAPE CHARLES BUO 0826      77                N/A     3/ 4   2/ 9
OFFSHORE WE BUOY 0811      78                N/A     4/ 8   2/ 8
64NM E OF VA BCH 0850   77 76  230/ 14/ 17 1010.0F   4/ 8   3/ 8
DUCK PIER NC     0800   77 75  230/ 15/ 20 1010.4F
44100 DUCK FRF   0824      75                N/A     3/14   2/14
44056 DUCK FRF   0811      77                N/A     2/ 8
OREGON INLET NC  0800   77 77  230/ 20/ 24 1011.7F
HATTERAS NC      0800   77 77  230/ 14/ 21 1012.6F
DIAMOND SHLS NC  0850   81 81  250/ 27/ 31 1012.2F   9/ 8   2/11
CAPE LOOKOUT NC  0900   79     240/ 18/ 23 1013.5R
$$


USA.gov is the U.S. government's official web portal to all federal, state and local government web resources and services.